Regional Weather Roundup
Issued by NWS

Home | Current Version | Previous Version | Graphics & Text | Print | Product List | Glossary On
Versions: 1 2 3 4 5 6 7 8 9 10 11 12 13 14 15 16 17 18 19 20 21 22 23 24 25 26 27
000
ASUS45 KPSR 170310
RWRAZ

ARIZONA HOURLY REGIONAL WEATHER ROUNDUP
NATIONAL WEATHER SERVICE PHOENIX AZ
800 PM MST MON OCT 16 2017

NOTE: FAIR INDICATES FEW OR NO CLOUDS BELOW 12,000 FEET WITH NO
SIGNIFICANT WEATHER AND/OR OBSTRUCTIONS TO VISIBILITY.

AZZ001>003-036-170400-
NORTHWEST ARIZONA

CITY           SKY/WX    TMP DP  RH WIND       PRES   REMARKS
BULLHEAD CITY  CLEAR     84   5   5 N17       30.02R
KINGMAN        CLEAR     63  13  14 E8        30.20R
$$

AZZ004>008-015-016-018-170400-
NORTH CENTRAL ARIZONA

CITY           SKY/WX    TMP DP  RH WIND       PRES   REMARKS
GRAND CANYON   CLEAR     42   6  22 CALM      30.40S
WILLIAMS       PTCLDY    52  21  30 S8        30.39S
PRESCOTT       CLEAR     62  32  32 SW5       30.28R
FLAGSTAFF      PTCLDY    47  18  31 CALM      30.43R
PAYSON           N/A     68  34  28 E5        30.31S
PAGE           CLEAR     56  14  19 S3        30.28R
$$

AZZ009>014-017-170400-
NORTHEAST ARIZONA

CITY           SKY/WX    TMP DP  RH WIND       PRES   REMARKS
WINSLOW        PTCLDY    60  10  14 NW7       30.30R
SAINT JOHNS    PTCLDY    56  21  25 CALM      30.32S
WINDOW ROCK    PTCLDY    54  13  19 CALM      30.42R
SHOW LOW       PTCLDY    61  28  29 S9        30.40R
$$

AZZ540-542>544-546-548-170400-
GREATER PHOENIX AREA

CITY           SKY/WX    TMP DP  RH WIND       PRES   REMARKS
PHOENIX        CLEAR     88  38  17 NW6       29.97R
BUCKEYE        CLEAR     79  32  18 N7        29.99R
GLENDALE       PTCLDY    86  36  16 CALM      29.99R
LUKE AFB       CLEAR     79  42  26 NW3       29.97R
DEER VALLEY    CLEAR     84  35  17 N6        30.00R
SCOTTSDALE     CLEAR     86  37  17 N6        30.02R
MESA-FALCON    PTCLDY    86  39  19 NE3       30.01R
MESA-GATEWAY   CLEAR     81  37  21 N3        30.01R
CHANDLER       CLEAR     84  41  21 W5        29.99R
$$

AZZ539-553-170400-
SOUTHWEST MARICOPA COUNTY AND PINAL COUNTY

CITY           SKY/WX    TMP DP  RH WIND       PRES   REMARKS
CASA GRANDE    NOT AVBL
GILA BEND      CLEAR     84  34  16 E2        29.96
$$

AZZ503-504-507>509-170400-
SOUTHEAST ARIZONA

CITY           SKY/WX    TMP DP  RH WIND       PRES   REMARKS
TUCSON         CLEAR     84  44  24 E5        30.10R
DAVIS-MONTHAN  CLEAR     82  41  23 VRB3      30.08R
RYAN FIELD     CLEAR     84  43  23 CALM      30.09R
NOGALES        PTCLDY    80  45  28 E9        30.16R
SIERRA VISTA   CLEAR     69  43  38 SE6       30.26R
DOUGLAS        CLEAR     73  45  36 E9        30.23R
SAFFORD        CLEAR     74  42  31 SE7       30.17R
$$

AZZ532-170400-
SOUTHWEST ARIZONA

CITY           SKY/WX    TMP DP  RH WIND       PRES   REMARKS
YUMA           CLEAR     86  21   9 NW6       29.95R
$$

CAZ041-043-047-048-061-525>527-560>570-170400-
SOUTHERN CALIFORNIA

CITY           SKY/WX    TMP DP  RH WIND       PRES   REMARKS
DOWNTOWN L.A.  CLEAR     77  48  35 CALM      29.98R
L.A. AIRPORT   CLEAR     75  50  41 W10       29.98R
SAN DIEGO      PTCLDY    80  39  23 N6        30.01R
BURBANK        CLEAR     84  24  11 VRB5      30.01R
ONTARIO        PTCLDY    81  27  14 CALM      30.02R
RIVERSIDE      CLEAR     82  36  19 CALM      30.02R
PALM SPRINGS   CLEAR     87  22   9 NW5       30.01R
EL CENTRO NAS  CLEAR     80  22  11 SW6       29.96R
IMPERIAL       CLEAR     78  36  21 W5        29.94R
BLYTHE         CLEAR     79   8   6 NW8       29.98R
NEEDLES        CLEAR     81   4   5 NW6       30.04R
$$

NVZ020-UTZ003-170400-
SOUTHERN NEVADA-UTAH

CITY           SKY/WX    TMP DP  RH WIND       PRES   REMARKS
LAS VEGAS      PTCLDY    72  18  13 SW5       30.13R
SALT LAKE CITY PTCLDY    52  36  54 CALM      30.32F
$$

NMZ009-TXZ055-170400-
NEW MEXICO-WEST TEXAS

CITY           SKY/WX    TMP DP  RH WIND       PRES   REMARKS
ALBUQUERQUE    CLEAR     58  22  24 E3        30.35S
EL PASO        CLEAR     70  39  32 CALM      30.30R
$$


........................KEY........................
SKY/WX - SKY CONDITION/WEATHER
TMP    - TEMPERATURE IN FAHRENHEIT
DP     - DEW POINT IN FAHRENHEIT
RH     - RELATIVE HUMIDITY IN PERCENT
WIND   - DIRECTION AND SPEED IN MILES PER HOUR (MPH)
VRB    - VARIABLE WIND DIRECTION
PRES   - MEAN SEA LEVEL PRESSURE IN INCHES OF MERCURY
         F - FALLING PRESSURE   R - RISING PRESSURE
         S - STEADY PRESSURE
VSB    - VISIBILITY IN MILES
HX     - HEAT INDEX IN FAHRENHEIT
WCI    - WIND CHILL INDEX IN FAHRENHEIT
TC     - TEMPERATURE IN CELSIUS WHICH IS ALSO KNOWN AS
         TEMPERATURE IN CENTIGRADE
AFB    - AIR FORCE BASE
         LUKE AFB IS LUKE AIR FORCE BASE
         DAVIS-MONTHAN IS DAVIS-MONTHAN AIR FORCE BASE
NAS    - NAVAL AIR STATION
         EL CENTRO NAS IS EL CENTRO NAVAL AIR STATION
N/A    - NOT AVAILABLE





USA.gov is the U.S. government's official web portal to all federal, state and local government web resources and services.